#timestamp,LO_Frequency,Hit,StdDev 
1605477615.6,286046999.2,N
1605477635.4,286046998.6,N
1605477655.3,286047001.2,N
1605477675.1,286047000.3,N
1605477695.9,286047000.6,N
1605477715.7,286047000.1,N
1605477735.5,286047000.8,N
1605477755.4,286046998.4,N
1605477775.2,286046998.6,N
1605477795.0,286047001.2,N
1605477795.9,286047001.2,N
1605477815.8,286046998.3,N
1605477835.6,286046998.6,N
1605477855.5,286047000.2,N
1605477875.3,286046998.6,N
1605477895.1,286047002.6,N
1605477915.9,286047001.3,N
1605477935.7,286047004.4,N
1605477955.5,286047004.0,N
1605477975.4,286047001.4,N
1605477995.2,286047001.8,N
1605478015.0,286047003.3,N
1605478016.0,286047003.3,N
1605478035.8,286047001.8,N
1605478055.6,286047001.4,N
1605478075.5,286046999.7,N
1605478095.3,286047002.2,N
1605478115.1,286047004.0,N
1605478135.9,286047004.2,N
1605478155.7,286047004.4,N
1605478175.6,286047002.2,N
1605478195.4,286047003.7,N
1605478215.2,286047002.5,N
1605478235.1,286046999.8,N
1605478236.0,286046999.8,N
1605478255.8,286047002.6,N
1605478275.6,286047002.1,N
1605478295.5,286047003.7,N
1605478315.3,286047003.4,N
1605478335.2,286047001.6,N
1605478355.9,286047000.1,N
1605478375.7,286047002.5,N
1605478395.6,286046999.9,N
1605478415.4,286047001.2,N
1605478435.3,286046998.6,N
1605478455.1,286047000.7,N
1605478456.0,286047000.7,N
1605478475.8,286047000.6,N
1605478495.7,286047000.6,N
1605478515.5,286047000.0,N
1605478535.3,286046999.0,N
1605478555.2,286046995.4,N
1605478575.0,286046996.3,N
1605478575.9,286046996.3,N
1605478595.8,286046996.1,N
1605478615.6,286046995.2,N
1605478635.4,286046995.3,N
1605478655.3,286046994.9,N
1605478675.1,286046997.2,N
1605478695.9,286046996.9,N
1605478715.7,286046996.6,N
1605478735.5,286046997.0,N
1605478755.4,286046998.4,N
1605478775.2,286046998.2,N
1605478795.0,286046998.9,N
1605478795.9,286046998.9,N
1605478815.8,286046998.2,N
1605478835.6,286047000.8,N
1605478855.5,286047001.1,N
1605478875.3,286047000.6,N
1605478895.1,286046997.0,N
1605478915.9,286046998.0,N
1605478935.7,286046997.6,N
1605478955.5,286046999.3,N
1605478975.4,286046999.3,N
1605478995.2,286046998.9,N
1605479015.0,286046998.4,N
1605479015.9,286046998.4,N
1605479035.8,286046999.2,N
1605479055.6,286046999.1,N
1605479075.5,286046996.9,N
1605479095.3,286046999.4,N
1605479115.1,286046998.1,N
1605479135.9,286047002.8,N
1605479155.7,286047002.4,N
1605479175.5,286046998.3,N
1605479195.4,286047000.3,N
1605479215.2,286047002.3,N
1605479235.1,286047001.3,N
1605479236.0,286047001.3,N
1605479255.8,286046999.7,N
1605479275.6,286047000.7,N
1605479295.5,286046998.2,N
1605479315.3,286046998.5,N
1605479335.1,286046997.0,N
1605479355.9,286046995.7,N
1605479375.7,286046996.4,N
1605479395.6,286046995.0,N
1605479415.4,286046995.3,N
1605479435.2,286046996.5,N
1605479455.1,286046996.8,N
1605479456.0,286046996.8,N
1605479475.8,286046997.7,N
1605479495.6,286046997.9,N
1605479515.5,286046994.9,N
1605479535.3,286046996.7,N
1605479555.2,286046999.5,N
1605479575.9,286046998.5,N
1605479595.7,286046998.1,N
1605479615.6,286046998.9,N
1605479635.4,286046999.1,N
1605479655.2,286046999.1,N
1605479675.1,286046997.0,N
1605479676.0,286046997.0,N
1605479695.8,286046995.4,N
1605479715.7,286046997.5,N
1605479735.5,286046995.5,N
1605479755.3,286046995.1,N
1605479775.2,286046999.5,N
1605479795.9,286046997.3,N
1605479815.7,286046996.8,N
1605479835.6,286046999.3,N
1605479855.4,286046999.0,N
1605479875.3,286046998.4,N
1605479895.1,286046999.6,N
1605479896.0,286046999.6,N
1605479915.8,286046999.5,N
1605479935.7,286046997.7,N
1605479955.5,286046996.0,N
1605479975.3,286046995.1,Y
1605479995.2,286046997.0,P
1605480015.0,286046998.0,P
1605480015.9,286046998.0,P
1605480035.8,286046998.9,N
1605480055.6,286046999.0,N
1605480075.4,286047000.6,N
1605480095.3,286047001.2,N
1605480115.1,286046999.1,N
1605480135.9,286046996.6,N
1605480155.7,286046999.6,N
1605480175.5,286046996.8,N
1605480195.4,286046997.2,N
1605480215.2,286046999.2,N
1605480235.0,286046997.0,N
1605480235.9,286046997.0,N
1605480255.8,286046996.7,N
1605480275.6,286046998.8,N
1605480295.5,286046999.4,N
1605480315.3,286046996.8,N
1605480335.1,286046999.2,N
1605480355.9,286046999.0,N
1605480375.7,286046998.7,N
1605480395.5,286047000.7,N
1605480415.4,286046999.3,N
1605480435.2,286046999.6,N
1605480455.0,286046999.5,N
1605480456.0,286046999.5,N
1605480475.8,286046998.8,N
1605480495.6,286047001.2,N
1605480515.5,286047000.8,N
1605480535.3,286046998.2,N
1605480555.1,286046998.1,N
1605480575.9,286047000.5,N
1605480595.7,286047001.0,N
1605480615.5,286047000.7,N
1605480635.4,286047002.8,N
1605480655.2,286047000.2,N
1605480675.1,286046998.4,N
1605480676.0,286046998.4,N
1605480695.8,286046998.2,N
1605480715.6,286047000.4,N
1605480735.5,286046999.9,N
1605480755.3,286047000.6,N
1605480775.1,286046999.9,N
1605480795.9,286047001.2,N
1605480815.7,286046998.8,N
1605480835.6,286047000.8,N
1605480855.4,286047001.2,N
1605480875.2,286047001.1,N
1605480895.1,286047001.2,N
1605480896.0,286047001.2,N
1605480915.8,286046999.4,N
1605480935.7,286046997.6,N
1605480955.5,286046995.0,Y
1605480975.3,286046997.6,P
1605480995.2,286046997.7,N
1605481015.0,286046996.7,P
1605481015.9,286046996.7,N
1605481035.7,286046998.6,N
1605481055.6,286047000.4,N
1605481075.4,286047000.3,N
1605481095.3,286046998.6,N
1605481115.1,286046996.5,N
1605481116.0,286046996.5,N
1605481135.8,286046995.4,Y
1605481155.7,286046998.6,P
1605481175.5,286046998.2,P
1605481195.3,286046998.8,P
